Showing default

DIADEME 1, 2674

Orbit data source: Space-Track

DIADEME 1, 2674 is a payload satellite owned by CNES (FR) in LEO that was launched on Wed, 08 Feb 1967 UTC via a DIAMANT A launch vehicle from the Hamma Guira Space Track Range (HGSTR). Payload-class satellites include a variety of spacecraft equipped with specific instruments for various scientific and technological missions. These include communications satellites like Starlink; space stations such as the ISS; scientific satellites like the Hubble; Earth observation satellites from companies like Planet Labs, Umbra, and HawkEye 360; GPS; miniature CubeSats for education and research; and military/defense satellites.

Loading next visibility...
Identifier
2674, 1967-011A
Orbit
LEO
Country
Flag of FRFR
Related business
Manufacturer
CNES
Mission
Spacecraft
Bus & Motor
D-1, Unknown motor
Mass
23 kg wet, 23 kg dry
Launch date (UTC)
1967-02-08 (59 years ago)
Launch vehicle
DIAMANT A
Launch site
Hamma Guira Space Track Range (HGSTR)
Object type
Payload
Rocket body
Debris
Shape & HBR
Unknown
Radar Cross Section
Medium (>0.1 m² and <1 m²)

Expand to show TLE details & history
Last TLE update: 15 hours ago

TLE from 15 hours ago
0 DIADEME 1
1 02674U 67011A   25354.25910980  .00004127  00000-0  47030-3 0  9998
2 02674  39.9137 201.1054 0210164  97.0670 265.4060 14.72230001 63708
Epoch: 2025-12-20T06:13Z
TLE epoch observation values (Epoch: 2025-12-20T06:13:07.086Z)
Latitude
-0.00003°
Longitude
18.73735°
Altitude
668.317 km
Speed
7.517 km/s
True Right ascension
13h 24m 25s
True Declination
0° 00' 00"
Sunlit
Object was in daylight at epoch
Visualization orbit readout
Latitude
Unknown
Longitude
Unknown
Altitude
Unknown
Speed
Unknown
Apparent Right ascension
Unknown
Apparent Declination
Unknown
Sunlit
N/A
Visualization observer readout
Local Sidereal Time
20:02:34
Azimuth
Unknown
Elevation
Unknown
Doppler factor
Unknown
Orbital elements
Apogee altitude
804.2 km
Perigee altitude
508.52 km
Semi-major axis
7,034.497 km
Eccentricity
0.02102
Inclination
39.9137°
RAAN
201.1054°
Arg. of periapsis
97.067°
True anomaly
263.01117°
Mean anomaly
265.406°
Eccentric anomaly
264.208°
Mean motion
3.67869 °/min
Orbital period
97.86 mins
BSTAR
0.0004703
Loading maneuver chart data...
Computing Atmospheric mass density...

Documentation

Showing up to 5 results
|